Time,TemperatureF,DewpointF,PressureIn,WindDirection,WindDirectionDegrees,WindSpeedMPH,WindSpeedGustMPH,Humidity,HourlyPrecipIn,Conditions,Clouds,dailyrainin,SoftwareType,DateUTC
2013-08-11 00:01:00,79.7,75.2,30.08,SW,226,2.0,4.0,86,0.00,,---,0.00,VWS V14.01,2013-08-11 04:01:00,
2013-08-11 00:02:00,79.7,75.2,30.09,SW,226,2.0,4.0,86,0.00,,---,0.00,VWS V14.01,2013-08-11 04:02:00,
2013-08-11 00:08:00,79.7,75.5,30.08,SW,227,1.0,4.0,87,0.00,,---,0.00,VWS V14.01,2013-08-11 04:08:00,
2013-08-11 00:13:00,79.6,75.4,30.08,SW,227,0.0,4.0,87,0.00,,---,0.00,VWS V14.01,2013-08-11 04:13:00,
2013-08-11 00:18:00,79.5,75.3,30.08,SW,227,0.0,4.0,87,0.00,,---,0.00,VWS V14.01,2013-08-11 04:18:00,
2013-08-11 00:23:00,79.4,75.2,30.08,SW,227,0.0,4.0,87,0.00,,---,0.00,VWS V14.01,2013-08-11 04:23:00,
2013-08-11 00:28:00,79.4,75.5,30.08,SW,227,1.0,2.0,88,0.00,,---,0.00,VWS V14.01,2013-08-11 04:28:00,
2013-08-11 00:33:00,79.3,75.4,30.08,SW,227,3.0,3.0,88,0.00,,---,0.00,VWS V14.01,2013-08-11 04:33:00,
2013-08-11 00:38:00,79.3,75.4,30.08,SW,227,2.0,4.0,88,0.00,,---,0.00,VWS V14.01,2013-08-11 04:38:00,
2013-08-11 00:43:00,79.2,75.7,30.08,SW,227,0.0,4.0,89,0.00,,---,0.00,VWS V14.01,2013-08-11 04:43:00,
2013-08-11 00:50:00,79.1,75.6,30.08,SW,227,0.0,4.0,89,0.00,,---,0.00,VWS V14.01,2013-08-11 04:50:00,
2013-08-11 00:55:00,79.0,75.5,30.08,SW,227,0.0,4.0,89,0.00,,---,0.00,VWS V14.01,2013-08-11 04:55:00,
2013-08-11 01:00:00,79.0,75.8,30.08,SW,227,0.0,1.0,90,0.00,,---,0.00,VWS V14.01,2013-08-11 05:00:00,
2013-08-11 01:05:00,78.9,75.7,30.08,SW,227,0.0,1.0,90,0.00,,---,0.00,VWS V14.01,2013-08-11 05:05:00,
2013-08-11 01:10:00,78.7,75.5,30.07,SW,227,0.0,1.0,90,0.00,,---,0.00,VWS V14.01,2013-08-11 05:10:00,
2013-08-11 01:15:00,78.7,75.5,30.08,SW,227,0.0,1.0,90,0.00,,---,0.00,VWS V14.01,2013-08-11 05:15:00,
2013-08-11 01:20:00,78.5,75.3,30.07,SW,227,0.0,2.0,90,0.00,,---,0.00,VWS V14.01,2013-08-11 05:20:00,
2013-08-11 01:25:00,78.4,75.2,30.07,SW,227,0.0,2.0,90,0.00,,---,0.00,VWS V14.01,2013-08-11 05:25:00,
2013-08-11 01:30:00,78.3,75.1,30.07,SW,227,0.0,0.0,90,0.00,,---,0.00,VWS V14.01,2013-08-11 05:30:00,
2013-08-11 01:36:00,78.2,75.0,30.07,SW,227,0.0,1.0,90,0.00,,---,0.00,VWS V14.01,2013-08-11 05:36:00,
2013-08-11 01:41:00,78.2,75.4,30.07,SW,227,2.0,3.0,91,0.00,,---,0.00,VWS V14.01,2013-08-11 05:41:00,
2013-08-11 01:46:00,78.2,75.4,30.07,SW,227,0.0,3.0,91,0.00,,---,0.00,VWS V14.01,2013-08-11 05:46:00,
2013-08-11 01:52:00,78.0,75.2,30.07,SW,227,1.0,3.0,91,0.00,,---,0.00,VWS V14.01,2013-08-11 05:52:00,
2013-08-11 01:57:00,77.9,75.1,30.06,SW,227,0.0,3.0,91,0.00,,---,0.00,VWS V14.01,2013-08-11 05:57:00,
2013-08-11 02:02:00,77.9,75.1,30.07,SW,227,0.0,2.0,91,0.00,,---,0.00,VWS V14.01,2013-08-11 06:02:00,
2013-08-11 02:07:00,78.0,75.2,30.06,SW,235,2.0,3.0,91,0.00,,---,0.00,VWS V14.01,2013-08-11 06:07:00,
2013-08-11 02:12:00,78.2,75.4,30.07,WSW,241,2.0,4.0,91,0.00,,---,0.00,VWS V14.01,2013-08-11 06:12:00,
2013-08-11 02:17:00,78.3,75.5,30.07,WSW,241,2.0,4.0,91,0.00,,---,0.00,VWS V14.01,2013-08-11 06:17:00,
2013-08-11 02:22:00,78.3,75.5,30.07,WSW,241,2.0,4.0,91,0.00,,---,0.00,VWS V14.01,2013-08-11 06:22:00,
2013-08-11 02:27:00,78.4,75.9,30.06,WSW,252,3.0,3.0,92,0.00,,---,0.00,VWS V14.01,2013-08-11 06:27:00,
2013-08-11 02:33:00,78.4,75.9,30.07,West,261,4.0,6.0,92,0.00,,---,0.00,VWS V14.01,2013-08-11 06:33:00,
2013-08-11 02:38:00,78.5,76.0,30.06,West,273,3.0,6.0,92,0.00,,---,0.00,VWS V14.01,2013-08-11 06:38:00,
2013-08-11 02:44:00,78.5,76.0,30.06,WSW,257,3.0,6.0,92,0.00,,---,0.00,VWS V14.01,2013-08-11 06:44:00,
2013-08-11 02:49:00,78.4,75.9,30.06,WSW,242,2.0,6.0,92,0.00,,---,0.00,VWS V14.01,2013-08-11 06:49:00,
2013-08-11 02:54:00,78.4,75.9,30.07,WSW,257,4.0,6.0,92,0.00,,---,0.00,VWS V14.01,2013-08-11 06:54:00,
2013-08-11 02:59:00,78.5,76.0,30.06,WSW,252,4.0,6.0,92,0.00,,---,0.00,VWS V14.01,2013-08-11 06:59:00,
2013-08-11 03:05:00,78.6,76.1,30.06,WSW,252,1.0,6.0,92,0.00,,---,0.00,VWS V14.01,2013-08-11 07:05:00,
2013-08-11 03:10:00,78.7,76.2,30.06,West,259,6.0,9.0,92,0.00,,---,0.00,VWS V14.01,2013-08-11 07:10:00,
2013-08-11 03:15:00,78.9,76.7,30.07,West,277,9.0,10.0,93,0.00,,---,0.00,VWS V14.01,2013-08-11 07:15:00,
2013-08-11 03:20:00,78.8,76.3,30.07,WNW,296,6.0,11.0,92,0.00,,---,0.00,VWS V14.01,2013-08-11 07:20:00,
2013-08-11 03:26:00,78.7,76.2,30.07,WNW,299,4.0,11.0,92,0.00,,---,0.00,VWS V14.01,2013-08-11 07:26:00,
2013-08-11 03:31:00,78.5,76.3,30.07,WNW,284,8.0,8.0,93,0.00,,---,0.00,VWS V14.01,2013-08-11 07:31:00,
2013-08-11 03:36:00,78.3,76.1,30.07,WNW,293,6.0,8.0,93,0.00,,---,0.00,VWS V14.01,2013-08-11 07:36:00,
2013-08-11 03:41:00,78.2,76.0,30.07,WNW,285,6.0,8.0,93,0.00,,---,0.00,VWS V14.01,2013-08-11 07:41:00,
2013-08-11 03:46:00,78.1,75.9,30.07,West,281,5.0,8.0,93,0.00,,---,0.00,VWS V14.01,2013-08-11 07:46:00,
2013-08-11 03:51:00,78.1,75.9,30.07,West,269,6.0,9.0,93,0.00,,---,0.00,VWS V14.01,2013-08-11 07:51:00,
2013-08-11 03:56:00,78.2,76.3,30.07,West,267,3.0,9.0,94,0.00,,---,0.00,VWS V14.01,2013-08-11 07:56:00,
2013-08-11 04:01:00,78.2,76.3,30.07,West,279,7.0,10.0,94,0.00,,---,0.00,VWS V14.01,2013-08-11 08:01:00,
2013-08-11 04:06:00,78.1,76.2,30.08,WNW,297,6.0,10.0,94,0.00,,---,0.00,VWS V14.01,2013-08-11 08:06:00,
2013-08-11 04:12:00,78.0,76.1,30.08,WNW,300,6.0,10.0,94,0.00,,---,0.00,VWS V14.01,2013-08-11 08:12:00,
2013-08-11 04:17:00,77.9,76.0,30.08,WNW,299,5.0,10.0,94,0.00,,---,0.00,VWS V14.01,2013-08-11 08:17:00,
2013-08-11 04:22:00,77.7,75.8,30.08,WNW,293,5.0,10.0,94,0.00,,---,0.00,VWS V14.01,2013-08-11 08:22:00,
2013-08-11 04:27:00,77.6,75.7,30.08,WNW,286,5.0,10.0,94,0.00,,---,0.00,VWS V14.01,2013-08-11 08:27:00,
2013-08-11 04:32:00,77.6,75.7,30.08,West,278,4.0,7.0,94,0.00,,---,0.00,VWS V14.01,2013-08-11 08:32:00,
2013-08-11 04:37:00,77.6,75.7,30.08,West,265,7.0,7.0,94,0.00,,---,0.00,VWS V14.01,2013-08-11 08:37:00,
2013-08-11 04:42:00,77.6,75.7,30.08,WNW,284,5.0,10.0,94,0.00,,---,0.00,VWS V14.01,2013-08-11 08:42:00,
2013-08-11 04:48:00,77.7,76.2,30.08,West,271,7.0,11.0,95,0.00,,---,0.00,VWS V14.01,2013-08-11 08:48:00,
2013-08-11 04:53:00,77.7,75.8,30.08,West,268,10.0,13.0,94,0.00,,---,0.00,VWS V14.01,2013-08-11 08:53:00,
2013-08-11 04:59:00,77.7,75.8,30.08,West,268,6.0,14.0,94,0.00,,---,0.00,VWS V14.01,2013-08-11 08:59:00,
2013-08-11 05:04:00,77.6,75.7,30.08,West,272,9.0,14.0,94,0.00,,---,0.00,VWS V14.01,2013-08-11 09:04:00,
2013-08-11 05:09:00,77.6,75.7,30.08,West,275,12.0,14.0,94,0.00,,---,0.00,VWS V14.01,2013-08-11 09:09:00,
2013-08-11 05:14:00,77.5,75.6,30.08,West,278,10.0,14.0,94,0.00,,---,0.00,VWS V14.01,2013-08-11 09:14:00,
2013-08-11 05:19:00,77.6,75.7,30.08,West,272,5.0,14.0,94,0.00,,---,0.00,VWS V14.01,2013-08-11 09:19:00,
2013-08-11 05:24:00,77.6,75.4,30.08,West,275,10.0,14.0,93,0.00,,---,0.00,VWS V14.01,2013-08-11 09:24:00,
2013-08-11 05:29:00,77.6,75.4,30.08,WSW,256,6.0,13.0,93,0.00,,---,0.00,VWS V14.01,2013-08-11 09:29:00,
2013-08-11 05:34:00,77.6,75.4,30.08,West,277,11.0,14.0,93,0.00,,---,0.00,VWS V14.01,2013-08-11 09:34:00,
2013-08-11 05:39:00,77.6,75.1,30.08,West,271,6.0,14.0,92,0.00,,---,0.00,VWS V14.01,2013-08-11 09:39:00,
2013-08-11 05:45:00,77.7,75.2,30.08,West,268,4.0,14.0,92,0.00,,---,0.00,VWS V14.01,2013-08-11 09:45:00,
2013-08-11 05:50:00,77.5,75.0,30.08,West,264,6.0,14.0,92,0.00,,---,0.00,VWS V14.01,2013-08-11 09:50:00,
2013-08-11 05:55:00,77.5,74.7,30.08,WSW,255,6.0,14.0,91,0.00,,---,0.00,VWS V14.01,2013-08-11 09:55:00,
2013-08-11 06:00:00,77.5,74.7,30.08,West,272,9.0,11.0,91,0.00,,---,0.00,VWS V14.01,2013-08-11 10:00:00,
2013-08-11 06:06:00,77.6,74.8,30.09,West,271,8.0,11.0,91,0.00,,---,0.00,VWS V14.01,2013-08-11 10:06:00,
2013-08-11 06:11:00,77.7,74.9,30.09,West,273,7.0,11.0,91,0.00,,---,0.00,VWS V14.01,2013-08-11 10:11:00,
2013-08-11 06:16:00,77.6,74.4,30.08,West,281,7.0,11.0,90,0.00,,---,0.00,VWS V14.01,2013-08-11 10:16:00,
2013-08-11 06:21:00,77.5,74.3,30.08,West,267,6.0,11.0,90,0.00,,---,0.00,VWS V14.01,2013-08-11 10:21:00,
2013-08-11 06:27:00,77.5,74.3,30.09,West,279,6.0,11.0,90,0.00,,---,0.00,VWS V14.01,2013-08-11 10:27:00,
2013-08-11 06:32:00,77.4,74.2,30.09,West,277,6.0,10.0,90,0.00,,---,0.00,VWS V14.01,2013-08-11 10:32:00,
2013-08-11 06:37:00,77.4,74.2,30.09,West,270,5.0,10.0,90,0.00,,---,0.00,VWS V14.01,2013-08-11 10:37:00,
2013-08-11 06:42:00,77.4,74.2,30.09,West,278,5.0,10.0,90,0.00,,---,0.00,VWS V14.01,2013-08-11 10:42:00,
2013-08-11 06:47:00,77.4,74.2,30.09,WSW,251,4.0,10.0,90,0.00,,---,0.00,VWS V14.01,2013-08-11 10:47:00,
2013-08-11 06:52:00,77.4,74.2,30.09,West,267,5.0,10.0,90,0.00,,---,0.00,VWS V14.01,2013-08-11 10:52:00,
2013-08-11 06:57:00,77.4,74.2,30.09,West,265,6.0,10.0,90,0.00,,---,0.00,VWS V14.01,2013-08-11 10:57:00,
2013-08-11 07:02:00,77.4,74.2,30.10,West,259,5.0,7.0,90,0.00,,---,0.00,VWS V14.01,2013-08-11 11:02:00,
2013-08-11 07:07:00,77.5,74.3,30.09,SW,223,3.0,8.0,90,0.00,,---,0.00,VWS V14.01,2013-08-11 11:07:00,
2013-08-11 07:12:00,77.5,74.3,30.10,West,264,5.0,9.0,90,0.00,,---,0.00,VWS V14.01,2013-08-11 11:12:00,
2013-08-11 07:18:00,77.5,74.3,30.10,West,275,6.0,10.0,90,0.00,,---,0.00,VWS V14.01,2013-08-11 11:18:00,
2013-08-11 07:23:00,77.5,74.3,30.10,West,275,5.0,10.0,90,0.00,,---,0.00,VWS V14.01,2013-08-11 11:23:00,
2013-08-11 07:28:00,77.5,74.3,30.10,West,267,6.0,7.0,90,0.00,,---,0.00,VWS V14.01,2013-08-11 11:28:00,
2013-08-11 07:34:00,77.6,74.4,30.10,West,271,7.0,8.0,90,0.00,,---,0.00,VWS V14.01,2013-08-11 11:34:00,
2013-08-11 07:39:00,77.7,74.5,30.10,West,276,7.0,10.0,90,0.00,,---,0.00,VWS V14.01,2013-08-11 11:39:00,
2013-08-11 07:44:00,77.8,74.6,30.10,West,279,6.0,10.0,90,0.00,,---,0.00,VWS V14.01,2013-08-11 11:44:00,
2013-08-11 07:49:00,77.8,74.6,30.11,West,281,4.0,10.0,90,0.00,,---,0.00,VWS V14.01,2013-08-11 11:49:00,
2013-08-11 07:54:00,78.0,74.8,30.11,WNW,288,8.0,10.0,90,0.00,,---,0.00,VWS V14.01,2013-08-11 11:54:00,
2013-08-11 07:59:00,78.1,74.9,30.11,WNW,284,8.0,9.0,90,0.00,,---,0.00,VWS V14.01,2013-08-11 11:59:00,
2013-08-11 08:05:00,78.4,75.2,30.11,WNW,283,7.0,11.0,90,0.00,,---,0.00,VWS V14.01,2013-08-11 12:05:00,
2013-08-11 08:10:00,78.6,75.4,30.11,WNW,288,8.0,12.0,90,0.00,,---,0.00,VWS V14.01,2013-08-11 12:10:00,
2013-08-11 08:15:00,78.8,75.3,30.11,WNW,288,7.0,12.0,89,0.00,,---,0.00,VWS V14.01,2013-08-11 12:15:00,
2013-08-11 08:20:00,79.1,75.6,30.11,WNW,297,9.0,14.0,89,0.00,,---,0.00,VWS V14.01,2013-08-11 12:20:00,
2013-08-11 08:25:00,79.5,75.6,30.10,WNW,301,11.0,14.0,88,0.00,,---,0.00,VWS V14.01,2013-08-11 12:25:00,
2013-08-11 08:30:00,79.6,75.4,30.10,WNW,297,12.0,15.0,87,0.00,,---,0.00,VWS V14.01,2013-08-11 12:30:00,
2013-08-11 08:35:00,80.0,75.8,30.11,NW,305,12.0,15.0,87,0.00,,---,0.00,VWS V14.01,2013-08-11 12:35:00,
2013-08-11 08:41:00,80.3,76.1,30.10,WNW,300,12.0,15.0,87,0.00,,---,0.00,VWS V14.01,2013-08-11 12:41:00,
2013-08-11 08:46:00,80.5,75.9,30.10,WNW,294,9.0,15.0,86,0.00,,---,0.00,VWS V14.01,2013-08-11 12:46:00,
2013-08-11 08:51:00,80.6,76.0,30.11,NW,306,11.0,15.0,86,0.00,,---,0.00,VWS V14.01,2013-08-11 12:51:00,
2013-08-11 08:56:00,80.8,76.2,30.10,WNW,283,10.0,15.0,86,0.00,,---,0.00,VWS V14.01,2013-08-11 12:56:00,
2013-08-11 09:01:00,81.0,76.1,30.10,WNW,293,11.0,11.0,85,0.00,,---,0.00,VWS V14.01,2013-08-11 13:01:00,
2013-08-11 09:07:00,81.3,76.4,30.10,WNW,298,7.0,12.0,85,0.00,,---,0.00,VWS V14.01,2013-08-11 13:07:00,
2013-08-11 09:12:00,81.4,76.1,30.10,NW,304,12.0,13.0,84,0.00,,---,0.00,VWS V14.01,2013-08-11 13:12:00,
2013-08-11 09:17:00,81.7,76.4,30.10,NW,311,11.0,13.0,84,0.00,,---,0.00,VWS V14.01,2013-08-11 13:17:00,
2013-08-11 09:22:00,82.0,76.3,30.11,NW,304,9.0,13.0,83,0.00,,---,0.00,VWS V14.01,2013-08-11 13:22:00,
2013-08-11 09:27:00,82.1,76.4,30.10,NW,304,10.0,14.0,83,0.00,,---,0.00,VWS V14.01,2013-08-11 13:27:00,
2013-08-11 09:32:00,82.3,76.3,30.10,WNW,302,10.0,13.0,82,0.00,,---,0.00,VWS V14.01,2013-08-11 13:32:00,
2013-08-11 09:37:00,82.4,76.4,30.10,WNW,290,10.0,13.0,82,0.00,,---,0.00,VWS V14.01,2013-08-11 13:37:00,
2013-08-11 09:42:00,82.4,76.0,30.10,WNW,302,12.0,14.0,81,0.00,,---,0.00,VWS V14.01,2013-08-11 13:42:00,
2013-08-11 09:47:00,82.6,76.2,30.10,WNW,294,12.0,14.0,81,0.00,,---,0.00,VWS V14.01,2013-08-11 13:47:00,
2013-08-11 09:52:00,82.7,76.3,30.10,WNW,294,10.0,14.0,81,0.00,,---,0.00,VWS V14.01,2013-08-11 13:52:00,
2013-08-11 09:57:00,82.8,76.4,30.11,NW,308,10.0,10.0,81,0.00,,---,0.00,VWS V14.01,2013-08-11 13:57:00,
2013-08-11 10:02:00,82.9,76.5,30.10,West,273,6.0,11.0,81,0.00,,---,0.00,VWS V14.01,2013-08-11 14:02:00,
2013-08-11 10:08:00,82.9,76.5,30.10,West,279,3.0,11.0,81,0.00,,---,0.00,VWS V14.01,2013-08-11 14:08:00,
2013-08-11 10:13:00,83.1,76.7,30.10,WNW,284,5.0,11.0,81,0.00,,---,0.00,VWS V14.01,2013-08-11 14:13:00,
2013-08-11 10:18:00,83.4,77.0,30.10,West,261,3.0,11.0,81,0.00,,---,0.00,VWS V14.01,2013-08-11 14:18:00,
2013-08-11 10:23:00,83.4,76.6,30.10,West,281,5.0,11.0,80,0.00,,---,0.00,VWS V14.01,2013-08-11 14:23:00,
2013-08-11 10:28:00,83.6,76.8,30.10,West,268,6.0,8.0,80,0.00,,---,0.00,VWS V14.01,2013-08-11 14:28:00,
2013-08-11 10:33:00,83.8,77.0,30.10,West,261,5.0,8.0,80,0.00,,---,0.00,VWS V14.01,2013-08-11 14:33:00,
2013-08-11 10:38:00,84.2,77.0,30.10,West,261,4.0,8.0,79,0.00,,---,0.00,VWS V14.01,2013-08-11 14:38:00,
2013-08-11 10:44:00,84.5,77.3,30.10,West,267,7.0,8.0,79,0.00,,---,0.00,VWS V14.01,2013-08-11 14:44:00,
2013-08-11 10:49:00,84.8,77.2,30.10,West,261,6.0,9.0,78,0.00,,---,0.00,VWS V14.01,2013-08-11 14:49:00,
2013-08-11 10:54:00,85.1,77.1,30.10,West,260,4.0,9.0,77,0.00,,---,0.00,VWS V14.01,2013-08-11 14:54:00,
2013-08-11 10:59:00,85.4,77.4,30.10,West,268,5.0,6.0,77,0.00,,---,0.00,VWS V14.01,2013-08-11 14:59:00,
2013-08-11 11:04:00,85.6,77.2,30.10,West,267,5.0,7.0,76,0.00,,---,0.00,VWS V14.01,2013-08-11 15:04:00,
2013-08-11 11:09:00,85.6,77.2,30.10,SSW,202,3.0,7.0,76,0.00,,---,0.00,VWS V14.01,2013-08-11 15:09:00,
2013-08-11 11:15:00,86.1,78.4,30.10,South,190,10.0,10.0,78,0.00,,---,0.00,VWS V14.01,2013-08-11 15:15:00,
2013-08-11 11:20:00,86.3,78.6,30.09,SSW,192,6.0,11.0,78,0.00,,---,0.00,VWS V14.01,2013-08-11 15:20:00,
2013-08-11 11:25:00,86.4,78.3,30.09,South,169,7.0,11.0,77,0.00,,---,0.00,VWS V14.01,2013-08-11 15:25:00,
2013-08-11 11:30:00,86.3,78.6,30.09,SSW,204,6.0,10.0,78,0.00,,---,0.00,VWS V14.01,2013-08-11 15:30:00,
2013-08-11 11:35:00,86.3,78.6,30.09,SSW,196,9.0,10.0,78,0.00,,---,0.00,VWS V14.01,2013-08-11 15:35:00,
2013-08-11 11:40:00,86.3,78.6,30.09,SSW,200,11.0,11.0,78,0.00,,---,0.00,VWS V14.01,2013-08-11 15:40:00,
2013-08-11 11:45:00,86.2,78.9,30.09,South,188,3.0,11.0,79,0.00,,---,0.00,VWS V14.01,2013-08-11 15:45:00,
2013-08-11 11:51:00,86.2,78.9,30.09,SSW,210,7.0,11.0,79,0.00,,---,0.00,VWS V14.01,2013-08-11 15:51:00,
2013-08-11 11:56:00,86.0,78.7,30.09,SSW,196,9.0,12.0,79,0.00,,---,0.00,VWS V14.01,2013-08-11 15:56:00,
2013-08-11 12:01:00,86.0,78.7,30.09,SSW,196,9.0,11.0,79,0.00,,---,0.00,VWS V14.01,2013-08-11 16:01:00,
2013-08-11 12:06:00,86.1,78.8,30.09,SSW,192,6.0,12.0,79,0.00,,---,0.00,VWS V14.01,2013-08-11 16:06:00,
2013-08-11 12:11:00,86.2,78.9,30.09,SSW,211,6.0,14.0,79,0.00,,---,0.00,VWS V14.01,2013-08-11 16:11:00,
2013-08-11 12:16:00,86.1,78.8,30.09,SSW,197,9.0,14.0,79,0.00,,---,0.00,VWS V14.01,2013-08-11 16:16:00,
2013-08-11 12:21:00,86.3,79.4,30.08,SSW,209,12.0,14.0,80,0.00,,---,0.00,VWS V14.01,2013-08-11 16:21:00,
2013-08-11 12:27:00,86.4,79.1,30.08,SSW,203,12.0,14.0,79,0.00,,---,0.00,VWS V14.01,2013-08-11 16:27:00,
2013-08-11 12:32:00,86.5,79.6,30.09,SSW,206,10.0,14.0,80,0.00,,---,0.00,VWS V14.01,2013-08-11 16:32:00,
2013-08-11 12:37:00,86.7,79.8,30.09,SSW,211,9.0,14.0,80,0.00,,---,0.00,VWS V14.01,2013-08-11 16:37:00,
2013-08-11 12:42:00,86.8,79.5,30.09,SSW,195,11.0,14.0,79,0.00,,---,0.00,VWS V14.01,2013-08-11 16:42:00,
2013-08-11 12:48:00,86.4,79.1,30.08,SSW,192,10.0,15.0,79,0.00,,---,0.00,VWS V14.01,2013-08-11 16:48:00,
2013-08-11 12:53:00,86.5,79.6,30.08,South,190,9.0,15.0,80,0.00,,---,0.00,VWS V14.01,2013-08-11 16:53:00,
2013-08-11 12:58:00,86.8,79.9,30.08,SSW,196,6.0,14.0,80,0.00,,---,0.00,VWS V14.01,2013-08-11 16:58:00,
2013-08-11 13:03:00,87.0,80.1,30.08,SSW,205,12.0,14.0,80,0.00,,---,0.00,VWS V14.01,2013-08-11 17:03:00,
2013-08-11 13:09:00,87.0,79.7,30.07,South,190,11.0,14.0,79,0.00,,---,0.00,VWS V14.01,2013-08-11 17:09:00,
2013-08-11 13:14:00,86.8,79.5,30.07,SSW,202,11.0,15.0,79,0.00,,---,0.00,VWS V14.01,2013-08-11 17:14:00,
2013-08-11 13:19:00,86.7,79.8,30.07,SSW,195,11.0,15.0,80,0.00,,---,0.00,VWS V14.01,2013-08-11 17:19:00,
2013-08-11 13:24:00,86.3,79.4,30.07,SSW,201,8.0,15.0,80,0.00,,---,0.00,VWS V14.01,2013-08-11 17:24:00,
2013-08-11 13:30:00,86.2,79.7,30.07,SSW,204,11.0,13.0,81,0.00,,---,0.00,VWS V14.01,2013-08-11 17:30:00,
2013-08-11 13:35:00,86.4,79.9,30.07,SSW,197,10.0,15.0,81,0.00,,---,0.00,VWS V14.01,2013-08-11 17:35:00,
2013-08-11 13:40:00,86.4,79.9,30.07,SSW,205,14.0,15.0,81,0.00,,---,0.00,VWS V14.01,2013-08-11 17:40:00,
2013-08-11 13:45:00,86.3,79.8,30.06,SSW,207,10.0,16.0,81,0.00,,---,0.00,VWS V14.01,2013-08-11 17:45:00,
2013-08-11 13:50:00,85.9,79.8,30.06,SW,216,20.0,20.0,82,0.00,,---,0.00,VWS V14.01,2013-08-11 17:50:00,
2013-08-11 13:55:00,85.7,79.6,30.06,SSW,211,12.0,20.0,82,0.00,,---,0.00,VWS V14.01,2013-08-11 17:55:00,
2013-08-11 14:00:00,85.8,79.7,30.06,SSW,199,12.0,19.0,82,0.00,,---,0.00,VWS V14.01,2013-08-11 18:00:00,
2013-08-11 14:05:00,85.9,79.8,30.05,South,182,11.0,19.0,82,0.00,,---,0.00,VWS V14.01,2013-08-11 18:05:00,
2013-08-11 14:10:00,85.4,78.9,30.06,SW,219,12.0,19.0,81,0.00,,---,0.00,VWS V14.01,2013-08-11 18:10:00,
2013-08-11 14:15:00,84.7,78.6,30.06,SSW,208,2.0,19.0,82,0.00,,---,0.00,VWS V14.01,2013-08-11 18:15:00,
2013-08-11 14:20:00,84.1,78.4,30.06,SW,216,1.0,19.0,83,0.00,,---,0.00,VWS V14.01,2013-08-11 18:20:00,
2013-08-11 14:25:00,83.8,78.4,30.05,SW,225,0.0,19.0,84,0.00,,---,0.00,VWS V14.01,2013-08-11 18:25:00,
2013-08-11 14:31:00,83.6,78.6,30.06,SW,221,3.0,4.0,85,0.00,,---,0.00,VWS V14.01,2013-08-11 18:31:00,
2013-08-11 14:35:00,83.6,78.6,30.06,SSW,205,0.0,4.0,85,0.00,,---,0.00,VWS V14.01,2013-08-11 18:35:00,
2013-08-11 14:41:00,83.7,78.7,30.06,SSE,148,1.0,4.0,85,0.00,,---,0.00,VWS V14.01,2013-08-11 18:41:00,
2013-08-11 14:46:00,83.8,78.8,30.06,SSW,211,4.0,11.0,85,0.00,,---,0.00,VWS V14.01,2013-08-11 18:46:00,
2013-08-11 14:51:00,83.8,78.4,30.06,SW,223,1.0,11.0,84,0.00,,---,0.00,VWS V14.01,2013-08-11 18:51:00,
2013-08-11 14:56:00,83.6,78.3,30.07,South,172,3.0,11.0,84,0.00,,---,0.00,VWS V14.01,2013-08-11 18:56:00,
2013-08-11 15:01:00,83.6,78.3,30.06,SE,146,2.0,10.0,84,0.00,,---,0.00,VWS V14.01,2013-08-11 19:01:00,
2013-08-11 15:06:00,83.7,78.3,30.06,South,174,3.0,10.0,84,0.00,,---,0.00,VWS V14.01,2013-08-11 19:06:00,
2013-08-11 15:11:00,83.8,78.4,30.06,SE,131,1.0,10.0,84,0.00,,---,0.00,VWS V14.01,2013-08-11 19:11:00,
2013-08-11 15:16:00,83.8,78.1,30.06,South,174,4.0,10.0,83,0.00,,---,0.00,VWS V14.01,2013-08-11 19:16:00,
2013-08-11 15:21:00,83.9,78.2,30.05,South,181,6.0,10.0,83,0.00,,---,0.00,VWS V14.01,2013-08-11 19:21:00,
2013-08-11 15:26:00,84.0,78.3,30.05,SSW,210,11.0,14.0,83,0.00,,---,0.00,VWS V14.01,2013-08-11 19:26:00,
2013-08-11 15:31:00,83.5,77.4,30.06,SSW,201,7.0,14.0,82,0.00,,---,0.00,VWS V14.01,2013-08-11 19:31:00,
2013-08-11 15:36:00,83.2,77.1,30.06,South,190,12.0,16.0,82,0.00,,---,0.00,VWS V14.01,2013-08-11 19:36:00,
2013-08-11 15:42:00,82.7,76.7,30.06,SSW,205,16.0,20.0,82,0.00,,---,0.00,VWS V14.01,2013-08-11 19:42:00,
2013-08-11 15:47:00,81.5,75.5,30.07,SW,215,12.0,21.0,82,0.00,,---,0.00,VWS V14.01,2013-08-11 19:47:00,
2013-08-11 15:52:00,80.5,74.9,30.06,SW,222,12.0,21.0,83,0.00,,---,0.00,VWS V14.01,2013-08-11 19:52:00,
2013-08-11 15:57:00,79.7,74.1,30.06,WSW,240,18.0,21.0,83,0.00,,---,0.00,VWS V14.01,2013-08-11 19:57:00,
2013-08-11 16:02:00,79.4,73.8,30.06,SW,217,22.0,25.0,83,0.00,,---,0.00,VWS V14.01,2013-08-11 20:02:00,
2013-08-11 16:07:00,78.9,73.7,30.06,West,265,12.0,25.0,84,0.00,,---,0.00,VWS V14.01,2013-08-11 20:07:00,
2013-08-11 16:13:00,78.6,73.7,30.06,WSW,246,20.0,25.0,85,0.00,,---,0.00,VWS V14.01,2013-08-11 20:13:00,
2013-08-11 16:18:00,78.3,74.1,30.06,WSW,250,13.0,25.0,87,0.01,,---,0.01,VWS V14.01,2013-08-11 20:18:00,
2013-08-11 16:23:00,77.7,73.9,30.05,West,269,19.0,25.0,88,0.01,,---,0.01,VWS V14.01,2013-08-11 20:23:00,
2013-08-11 16:28:00,76.9,73.1,30.04,West,259,12.0,19.0,88,0.01,,---,0.01,VWS V14.01,2013-08-11 20:28:00,
2013-08-11 16:33:00,76.6,73.1,30.04,SW,229,7.0,20.0,89,0.01,,---,0.01,VWS V14.01,2013-08-11 20:33:00,
2013-08-11 16:38:00,76.5,73.3,30.05,WSW,257,13.0,20.0,90,0.01,,---,0.01,VWS V14.01,2013-08-11 20:38:00,
2013-08-11 16:44:00,76.7,73.6,30.05,SSW,212,19.0,20.0,90,0.01,,---,0.01,VWS V14.01,2013-08-11 20:44:00,
2013-08-11 16:49:00,76.7,73.6,30.04,West,277,6.0,20.0,90,0.01,,---,0.01,VWS V14.01,2013-08-11 20:49:00,
2013-08-11 16:54:00,76.5,73.3,30.04,SSW,212,9.0,20.0,90,0.01,,---,0.01,VWS V14.01,2013-08-11 20:54:00,
2013-08-11 17:00:00,76.4,73.2,30.04,SW,223,18.0,18.0,90,0.01,,---,0.01,VWS V14.01,2013-08-11 21:00:00,
2013-08-11 17:05:00,76.7,73.2,30.03,SW,226,9.0,18.0,89,0.01,,---,0.01,VWS V14.01,2013-08-11 21:05:00,
2013-08-11 17:10:00,77.5,73.3,30.03,WSW,240,11.0,18.0,87,0.01,,---,0.01,VWS V14.01,2013-08-11 21:10:00,
2013-08-11 17:16:00,78.2,74.0,30.03,SW,222,10.0,18.0,87,0.01,,---,0.01,VWS V14.01,2013-08-11 21:16:00,
2013-08-11 17:21:00,78.0,73.5,30.03,WSW,249,10.0,18.0,86,0.01,,---,0.01,VWS V14.01,2013-08-11 21:21:00,
2013-08-11 17:26:00,78.0,73.8,30.03,WSW,249,8.0,18.0,87,0.01,,---,0.01,VWS V14.01,2013-08-11 21:26:00,
2013-08-11 17:31:00,78.3,74.1,30.02,WSW,253,10.0,13.0,87,0.00,,---,0.01,VWS V14.01,2013-08-11 21:31:00,
2013-08-11 17:36:00,78.6,74.1,30.03,SW,223,10.0,15.0,86,0.00,,---,0.01,VWS V14.01,2013-08-11 21:36:00,
2013-08-11 17:41:00,79.1,74.6,30.03,WSW,240,10.0,15.0,86,0.00,,---,0.01,VWS V14.01,2013-08-11 21:41:00,
2013-08-11 17:46:00,79.6,74.7,30.02,SW,225,7.0,15.0,85,0.00,,---,0.01,VWS V14.01,2013-08-11 21:46:00,
2013-08-11 17:52:00,80.2,74.9,30.02,SSW,213,6.0,15.0,84,0.00,,---,0.01,VWS V14.01,2013-08-11 21:52:00,
2013-08-11 17:57:00,80.7,74.7,30.02,SSW,213,5.0,15.0,82,0.00,,---,0.01,VWS V14.01,2013-08-11 21:57:00,
2013-08-11 18:02:00,81.3,74.5,30.02,SW,214,9.0,15.0,80,0.00,,---,0.01,VWS V14.01,2013-08-11 22:02:00,
2013-08-11 18:07:00,81.8,75.0,30.02,SW,221,12.0,16.0,80,0.00,,---,0.01,VWS V14.01,2013-08-11 22:07:00,
2013-08-11 18:12:00,82.1,75.3,30.02,SW,221,16.0,16.0,80,0.00,,---,0.01,VWS V14.01,2013-08-11 22:12:00,
2013-08-11 18:18:00,82.1,75.7,30.02,SSW,196,11.0,16.0,81,0.00,,---,0.01,VWS V14.01,2013-08-11 22:18:00,
2013-08-11 18:23:00,81.9,75.5,30.01,SW,221,13.0,16.0,81,0.00,,---,0.01,VWS V14.01,2013-08-11 22:23:00,
2013-08-11 18:28:00,82.0,76.0,30.01,SSW,213,11.0,13.0,82,0.00,,---,0.01,VWS V14.01,2013-08-11 22:28:00,
2013-08-11 18:34:00,82.0,76.0,30.01,SW,216,8.0,15.0,82,0.00,,---,0.01,VWS V14.01,2013-08-11 22:34:00,
2013-08-11 18:39:00,82.1,76.1,30.02,SW,224,9.0,15.0,82,0.00,,---,0.01,VWS V14.01,2013-08-11 22:39:00,
2013-08-11 18:44:00,82.3,76.3,30.02,WSW,248,5.0,15.0,82,0.00,,---,0.01,VWS V14.01,2013-08-11 22:44:00,
2013-08-11 18:49:00,82.7,76.3,30.02,SW,234,13.0,15.0,81,0.00,,---,0.01,VWS V14.01,2013-08-11 22:49:00,
2013-08-11 18:54:00,83.0,76.2,30.02,SW,228,7.0,15.0,80,0.00,,---,0.01,VWS V14.01,2013-08-11 22:54:00,
2013-08-11 19:00:00,83.1,76.7,30.02,SW,230,12.0,12.0,81,0.00,,---,0.01,VWS V14.01,2013-08-11 23:00:00,
2013-08-11 19:05:00,82.9,76.5,30.02,SSW,211,9.0,14.0,81,0.00,,---,0.01,VWS V14.01,2013-08-11 23:05:00,
2013-08-11 19:10:00,82.7,76.7,30.02,SW,216,12.0,16.0,82,0.00,,---,0.01,VWS V14.01,2013-08-11 23:10:00,
2013-08-11 19:16:00,82.5,76.4,30.02,SW,234,14.0,17.0,82,0.00,,---,0.01,VWS V14.01,2013-08-11 23:16:00,
2013-08-11 19:21:00,82.2,76.5,30.02,SW,217,11.0,17.0,83,0.00,,---,0.01,VWS V14.01,2013-08-11 23:21:00,
2013-08-11 19:26:00,82.0,76.3,30.03,SW,219,7.0,17.0,83,0.00,,---,0.01,VWS V14.01,2013-08-11 23:26:00,
2013-08-11 19:31:00,81.8,76.5,30.03,SW,218,12.0,14.0,84,0.00,,---,0.01,VWS V14.01,2013-08-11 23:31:00,
2013-08-11 19:36:00,81.8,76.5,30.03,WSW,241,10.0,17.0,84,0.00,,---,0.01,VWS V14.01,2013-08-11 23:36:00,
2013-08-11 19:41:00,81.5,76.6,30.04,SW,219,12.0,17.0,85,0.00,,---,0.01,VWS V14.01,2013-08-11 23:41:00,
2013-08-11 19:46:00,81.2,76.6,30.03,SW,227,13.0,17.0,86,0.00,,---,0.01,VWS V14.01,2013-08-11 23:46:00,
2013-08-11 19:51:00,81.0,76.4,30.03,SSW,213,14.0,17.0,86,0.00,,---,0.01,VWS V14.01,2013-08-11 23:51:00,
2013-08-11 19:56:00,81.0,76.8,30.03,WSW,243,12.0,17.0,87,0.00,,---,0.01,VWS V14.01,2013-08-11 23:56:00,
2013-08-11 20:01:00,81.0,77.1,30.04,SW,235,12.0,14.0,88,0.00,,---,0.01,VWS V14.01,2013-08-12 00:01:00,
2013-08-11 20:07:00,81.0,77.1,30.04,WSW,242,8.0,14.0,88,0.00,,---,0.01,VWS V14.01,2013-08-12 00:07:00,
2013-08-11 20:12:00,81.0,77.5,30.05,WSW,244,13.0,15.0,89,0.00,,---,0.01,VWS V14.01,2013-08-12 00:12:00,
2013-08-11 20:18:00,80.9,77.4,30.04,WSW,243,7.0,18.0,89,0.00,,---,0.01,VWS V14.01,2013-08-12 00:18:00,
2013-08-11 20:23:00,80.8,77.3,30.04,WSW,238,15.0,18.0,89,0.00,,---,0.01,VWS V14.01,2013-08-12 00:23:00,
2013-08-11 20:28:00,80.8,77.6,30.04,WSW,245,10.0,10.0,90,0.00,,---,0.01,VWS V14.01,2013-08-12 00:28:00,
2013-08-11 20:33:00,80.7,77.5,30.04,WSW,246,7.0,12.0,90,0.00,,---,0.01,VWS V14.01,2013-08-12 00:33:00,
2013-08-11 20:38:00,80.6,77.4,30.04,WSW,246,9.0,16.0,90,0.00,,---,0.01,VWS V14.01,2013-08-12 00:38:00,
2013-08-11 20:43:00,80.5,77.6,30.04,SW,217,9.0,16.0,91,0.00,,---,0.01,VWS V14.01,2013-08-12 00:43:00,
2013-08-11 20:48:00,80.4,77.5,30.03,SW,216,9.0,16.0,91,0.00,,---,0.01,VWS V14.01,2013-08-12 00:48:00,
2013-08-11 20:54:00,80.3,77.4,30.03,SW,221,8.0,16.0,91,0.00,,---,0.01,VWS V14.01,2013-08-12 00:54:00,
2013-08-11 20:59:00,80.2,77.7,30.03,WSW,242,9.0,12.0,92,0.00,,---,0.01,VWS V14.01,2013-08-12 00:59:00,
2013-08-11 21:04:00,80.1,77.6,30.03,SSW,199,5.0,12.0,92,0.00,,---,0.01,VWS V14.01,2013-08-12 01:04:00,
2013-08-11 21:09:00,79.9,77.4,30.03,SW,215,5.0,12.0,92,0.00,,---,0.01,VWS V14.01,2013-08-12 01:09:00,
2013-08-11 21:14:00,79.8,77.3,30.02,SW,232,7.0,13.0,92,0.00,,---,0.01,VWS V14.01,2013-08-12 01:14:00,
2013-08-11 21:19:00,79.7,77.2,30.02,SW,219,8.0,13.0,92,0.00,,---,0.01,VWS V14.01,2013-08-12 01:19:00,
2013-08-11 21:24:00,79.7,77.5,30.03,SW,217,7.0,13.0,93,0.00,,---,0.01,VWS V14.01,2013-08-12 01:24:00,
2013-08-11 21:29:00,79.8,77.6,30.03,WSW,249,10.0,12.0,93,0.00,,---,0.01,VWS V14.01,2013-08-12 01:29:00,
2013-08-11 21:34:00,79.8,77.6,30.02,SSW,207,11.0,15.0,93,0.00,,---,0.01,VWS V14.01,2013-08-12 01:34:00,
2013-08-11 21:40:00,79.8,77.6,30.02,SSW,205,12.0,16.0,93,0.00,,---,0.01,VWS V14.01,2013-08-12 01:40:00,
2013-08-11 21:45:00,79.8,77.6,30.02,SW,215,13.0,18.0,93,0.00,,---,0.01,VWS V14.01,2013-08-12 01:45:00,
2013-08-11 21:50:00,79.9,77.7,30.03,WSW,258,7.0,18.0,93,0.00,,---,0.01,VWS V14.01,2013-08-12 01:50:00,
2013-08-11 21:55:00,79.9,77.7,30.03,SW,218,10.0,18.0,93,0.00,,---,0.01,VWS V14.01,2013-08-12 01:55:00,
2013-08-11 22:00:00,79.9,77.7,30.03,WSW,257,10.0,16.0,93,0.00,,---,0.01,VWS V14.01,2013-08-12 02:00:00,
2013-08-11 22:05:00,80.0,77.8,30.04,SW,230,10.0,16.0,93,0.00,,---,0.01,VWS V14.01,2013-08-12 02:05:00,
2013-08-11 22:10:00,79.9,77.7,30.04,SW,229,15.0,16.0,93,0.00,,---,0.01,VWS V14.01,2013-08-12 02:10:00,
2013-08-11 22:15:00,79.8,77.6,30.04,SSW,213,12.0,16.0,93,0.00,,---,0.01,VWS V14.01,2013-08-12 02:15:00,
2013-08-11 22:21:00,79.9,77.7,30.04,WSW,238,15.0,16.0,93,0.00,,---,0.01,VWS V14.01,2013-08-12 02:21:00,
2013-08-11 22:26:00,79.9,77.7,30.04,WSW,248,11.0,16.0,93,0.00,,---,0.01,VWS V14.01,2013-08-12 02:26:00,
2013-08-11 22:31:00,79.9,77.7,30.05,SW,227,12.0,12.0,93,0.00,,---,0.01,VWS V14.01,2013-08-12 02:31:00,
2013-08-11 22:36:00,79.8,77.6,30.05,WSW,250,11.0,13.0,93,0.00,,---,0.01,VWS V14.01,2013-08-12 02:36:00,
2013-08-11 22:41:00,79.7,77.5,30.05,WSW,246,7.0,13.0,93,0.00,,---,0.01,VWS V14.01,2013-08-12 02:41:00,
2013-08-11 22:46:00,79.6,77.4,30.05,SW,216,6.0,13.0,93,0.00,,---,0.01,VWS V14.01,2013-08-12 02:46:00,
2013-08-11 22:51:00,79.5,77.3,30.05,SW,227,4.0,13.0,93,0.00,,---,0.01,VWS V14.01,2013-08-12 02:51:00,
2013-08-11 22:57:00,79.4,77.2,30.05,SSW,213,9.0,13.0,93,0.00,,---,0.01,VWS V14.01,2013-08-12 02:57:00,
2013-08-11 23:02:00,79.3,77.1,30.05,SW,222,10.0,13.0,93,0.00,,---,0.01,VWS V14.01,2013-08-12 03:02:00,
2013-08-11 23:07:00,79.3,77.4,30.05,SW,222,6.0,13.0,94,0.00,,---,0.01,VWS V14.01,2013-08-12 03:07:00,
2013-08-11 23:12:00,79.2,77.3,30.05,SW,224,5.0,13.0,94,0.00,,---,0.01,VWS V14.01,2013-08-12 03:12:00,
2013-08-11 23:17:00,79.1,77.2,30.05,SSW,210,7.0,13.0,94,0.00,,---,0.01,VWS V14.01,2013-08-12 03:17:00,
2013-08-11 23:22:00,79.0,77.1,30.05,SW,228,6.0,13.0,94,0.00,,---,0.01,VWS V14.01,2013-08-12 03:22:00,
2013-08-11 23:27:00,79.0,77.1,30.05,SW,220,10.0,10.0,94,0.00,,---,0.01,VWS V14.01,2013-08-12 03:27:00,
2013-08-11 23:33:00,78.9,77.0,30.05,SW,234,5.0,11.0,94,0.00,,---,0.01,VWS V14.01,2013-08-12 03:33:00,
2013-08-11 23:39:00,78.8,76.9,30.05,SW,227,5.0,11.0,94,0.00,,---,0.01,VWS V14.01,2013-08-12 03:39:00,
2013-08-11 23:44:00,78.7,76.8,30.05,SW,220,7.0,11.0,94,0.00,,---,0.01,VWS V14.01,2013-08-12 03:44:00,
2013-08-11 23:49:00,78.7,76.8,30.05,SW,227,9.0,11.0,94,0.00,,---,0.01,VWS V14.01,2013-08-12 03:49:00,
2013-08-11 23:54:00,78.8,76.9,30.05,SSW,212,6.0,11.0,94,0.00,,---,0.01,VWS V14.01,2013-08-12 03:54:00,
2013-08-11 23:59:00,78.7,76.8,30.05,SW,221,6.0,10.0,94,0.00,,---,0.00,VWS V14.01,2013-08-12 03:59:00,